Freeland, MI

3:25 AM EST on February 08, 2016 (GMT -0500)
MBS International

Weather History for KMBS - January, 2012

Change the Weather History Date:

Thursday, January 26, 2012

  Actual Average Record
Temperature  
Mean Temperature 30 °F 22 °F  
Max Temperature 36 °F 29 °F 46 °F (2002)
Min Temperature 25 °F 15 °F -2 °F (2003)
Degree Days  
Heating Degree Days 34    
Month to date heating degree days  
Since 1 July heating degree days  
Cooling Degree Days 0    
Month to date cooling degree days  
Year to date cooling degree days  
Moisture  
Dew Point 28 °F    
Average Humidity 86    
Maximum Humidity 93    
Minimum Humidity 81    
Precipitation  
Precipitation 0.14 in 0.04 in 0.14 in (2012)
Month to date precipitation 1.47  
Year to date precipitation 1.47  
Snow  
Snow 0.00 in - - ()
Month to date snowfall  
Since 1 July snowfall  
Snow Depth -    
Sea Level Pressure  
Sea Level Pressure 29.84 in    
Wind  
Wind Speed 5 mph (East)    
Max Wind Speed 9 mph    
Max Gust Speed -    
Visibility 3 miles    
Events Rain , Snow    
T = Trace of Precipitation, MM = Missing Value Source: NWS Daily Summary

Daily Weather History Graph

Daily Weather History Graph

Search for Another Location

Airport or City:

Trip Planner

Search our weather history database for the weather conditions in past years. The results will help you decide how hot, cold, wet, or windy it might be!

Date:

Astronomy

Jan. 26, 2012 Rise Set
Actual Time 7:59 AM EST 5:39 PM EST
Civil Twilight 7:28 AM EST 6:09 PM EST
Nautical Twilight 6:53 AM EST 6:44 PM EST
Astronomical Twilight 6:19 AM EST 7:18 PM EST
Moon 9:17 AM EST (1/26) 9:40 PM EST (1/26)
Length of Visible Light 10h 41m
Length of Day
9h 40m
Waxing Crescent, 12% of the Moon is Illuminated
Jan 26
Waxing Crescent
Jan 30
First Quarter
Feb 7
Full
Feb 14
Last Quarter
Feb 21
New

Hourly Weather History & Observations

Time (EST) Temp. Windchill Dew Point Humidity Pressure Visibility Wind Dir Wind Speed Gust Speed Precip Events Conditions
12:53 AM 27.0 °F 21.6 °F 23.0 °F 85% 30.17 in 8.0 mi SE 4.6 mph - N/A   Partly Cloudy
1:53 AM 26.1 °F 20.5 °F 21.9 °F 84% 30.15 in 8.0 mi SE 4.6 mph - N/A   Scattered Clouds
2:53 AM 25.0 °F 18.1 °F 21.0 °F 85% 30.13 in 7.0 mi SE 5.8 mph - N/A   Clear
3:53 AM 26.1 °F 17.6 °F 21.9 °F 84% 30.10 in 6.0 mi SE 8.1 mph - N/A   Clear
4:53 AM 26.1 °F 19.4 °F 21.9 °F 84% 30.09 in 5.0 mi SE 5.8 mph - N/A   Clear
5:53 AM 26.1 °F 19.4 °F 21.9 °F 84% 30.06 in 4.0 mi ESE 5.8 mph - N/A   Clear
6:53 AM 27.0 °F 18.7 °F 23.0 °F 85% 30.04 in 4.0 mi SE 8.1 mph - N/A   Clear
7:15 AM 26.6 °F 19.1 °F 24.8 °F 93% 30.01 in 4.0 mi SE 6.9 mph - N/A   Mostly Cloudy
7:53 AM 28.0 °F 22.8 °F 25.0 °F 88% 30.04 in 2.0 mi SE 4.6 mph - N/A   Overcast
8:42 AM 28.4 °F 22.2 °F 24.8 °F 86% 29.98 in 2.0 mi SE 5.8 mph - N/A   Overcast
8:53 AM 28.9 °F 21.9 °F 26.1 °F 89% 30.00 in 2.0 mi SE 6.9 mph - N/A   Overcast
9:53 AM 30.9 °F 22.8 °F 28.0 °F 89% 29.96 in 2.0 mi SE 9.2 mph - N/A   Overcast
10:02 AM 30.2 °F 21.9 °F 28.4 °F 93% 29.93 in 2.0 mi SE 9.2 mph - N/A   Overcast
10:35 AM 30.2 °F 25.4 °F 28.4 °F 93% 29.94 in 2.0 mi SE 4.6 mph - N/A   Overcast
10:53 AM 32.0 °F - 28.0 °F 85% 29.97 in 2.0 mi Calm Calm - N/A   Overcast
11:21 AM 32.0 °F 25.6 °F 28.4 °F 87% 29.91 in 2.0 mi SE 6.9 mph - N/A   Overcast
11:43 AM 33.8 °F 28.6 °F 28.4 °F 81% 29.90 in 2.0 mi SE 5.8 mph - N/A   Overcast
11:53 AM 33.1 °F 26.9 °F 28.9 °F 85% 29.92 in 2.0 mi SE 6.9 mph - N/A   Overcast
11:59 AM 33.8 °F 29.6 °F 28.4 °F 81% 29.88 in 2.5 mi SE 4.6 mph - N/A   Haze
12:53 PM 35.1 °F - 30.0 °F 82% 29.87 in 2.5 mi Calm Calm - N/A   Haze
1:29 PM 35.6 °F - 30.2 °F 81% 29.82 in 2.5 mi Calm Calm - N/A   Haze
1:53 PM 35.1 °F 31.0 °F 30.0 °F 82% 29.83 in 2.5 mi NNE 4.6 mph - N/A   Haze
2:53 PM 35.1 °F 31.0 °F 30.0 °F 82% 29.79 in 2.5 mi East 4.6 mph - N/A   Haze
3:05 PM 35.6 °F 29.9 °F 30.2 °F 81% 29.76 in 3.0 mi East 6.9 mph - N/A   Haze
3:25 PM 35.6 °F 30.7 °F 30.2 °F 81% 29.75 in 3.0 mi East 5.8 mph - N/A   Haze
3:53 PM 36.0 °F 31.1 °F 30.9 °F 82% 29.77 in 3.0 mi East 5.8 mph - N/A   Haze
4:53 PM 36.0 °F 33.3 °F 30.9 °F 82% 29.74 in 3.0 mi East 3.5 mph - N/A   Haze
5:53 PM 35.6 °F 32.8 °F 30.2 °F 81% 29.69 in 3.0 mi NE 3.5 mph - N/A   Overcast
6:17 PM 33.8 °F 29.6 °F 30.2 °F 87% 29.69 in 5.0 mi NE 4.6 mph - N/A   Overcast
6:53 PM 34.0 °F 28.8 °F 30.9 °F 89% 29.71 in 4.0 mi NE 5.8 mph - N/A   Overcast
7:34 PM 33.8 °F 29.6 °F 30.2 °F 87% 29.67 in 3.0 mi ENE 4.6 mph - 0.00 in Rain Light Rain
7:53 PM 34.0 °F 28.8 °F 30.9 °F 89% 29.68 in 3.0 mi ENE 5.8 mph - 0.02 in Rain Light Rain
8:18 PM 33.8 °F 29.6 °F 30.2 °F 87% 29.66 in 2.5 mi ENE 4.6 mph - 0.01 in Rain Light Rain
8:33 PM 33.8 °F 30.8 °F 30.2 °F 87% 29.66 in 2.5 mi East 3.5 mph - 0.02 in Rain Light Rain
8:53 PM 33.1 °F 28.7 °F 30.9 °F 92% 29.67 in 1.5 mi ENE 4.6 mph - 0.03 in Rain Light Rain
9:32 PM 33.8 °F 30.8 °F 30.2 °F 87% 29.64 in 2.0 mi ENE 3.5 mph - 0.02 in Rain Light Rain
9:43 PM 33.8 °F - 30.2 °F 87% 29.64 in 1.8 mi Calm Calm - 0.03 in Rain Light Rain
9:50 PM 33.8 °F 30.8 °F 30.2 °F 87% 29.63 in 1.5 mi NE 3.5 mph - 0.03 in Snow Light Snow
9:53 PM 33.1 °F - 30.9 °F 92% 29.66 in 1.5 mi Calm Calm - 0.03 in Snow Light Snow
10:06 PM 33.8 °F 30.8 °F 30.2 °F 87% 29.63 in 0.8 mi NE 3.5 mph - 0.01 in Snow Light Snow
10:53 PM 33.1 °F 26.9 °F 30.9 °F 92% 29.61 in 1.0 mi NNE 6.9 mph - 0.04 in Snow Light Snow
11:53 PM 33.1 °F 26.9 °F 30.9 °F 92% 29.59 in 2.5 mi NNE 6.9 mph - 0.02 in   Overcast